• In Deutschland
  • Länderverzeichnis
  • Für 7 Tage
  • Wassertemperatur
  • Satellitenkarten
  • Wetterkarte
  • Widgets
  • user-avatar
    Anmelden

    Stündliche Wetter Oursi

    Heute, 23 September, Sonntag

    Zeit Temperatur Niederschläge Wind Luftdruck Luftfeuchtigkeit
    00:00 +37°C° 0 mm 4 m/S 734 mmHg 40%
    01:00 +36°C° 0 mm 4 m/S 734 mmHg 42%
    02:00 +35°C° 0 mm 4 m/S 733 mmHg 45%
    03:00 +35°C° 0 mm 4 m/S 733 mmHg 48%
    04:00 +34°C° 0 mm 4 m/S 733 mmHg 49%
    05:00 +34°C° 0 mm 4 m/S 733 mmHg 50%
    06:00 +33°C° 0 mm 4 m/S 734 mmHg 52%
    07:00 +34°C° 0 mm 4 m/S 734 mmHg 49%
    08:00 +35°C° 0 mm 4 m/S 734 mmHg 46%
    09:00 +36°C° 0 mm 4 m/S 735 mmHg 44%
    10:00 +38°C° 0 mm 4 m/S 735 mmHg 39%
    11:00 +39°C° 0 mm 3 m/S 735 mmHg 34%
    12:00 +40°C° 0 mm 2 m/S 734 mmHg 29%
    13:00 +42°C° 0 mm 3 m/S 734 mmHg 27%
    14:00 +42°C° 0 mm 3 m/S 733 mmHg 25%
    15:00 +43°C° 0 mm 4 m/S 732 mmHg 23%
    16:00 +42°C° 0 mm 3 m/S 732 mmHg 23%
    17:00 +42°C° 0 mm 3 m/S 732 mmHg 24%
    18:00 +42°C° 0 mm 3 m/S 733 mmHg 24%
    19:00 +40°C° 0 mm 2 m/S 733 mmHg 26%
    20:00 +40°C° 0 mm 2 m/S 733 mmHg 27%
    21:00 +39°C° 0 mm 1 m/S 734 mmHg 29%
    22:00 +39°C° 0.2 mm 2 m/S 734 mmHg 30%
    23:00 +38°C° 0.2 mm 3 m/S 734 mmHg 32%

    Morgen, 24 September, Montag

    Zeit Temperatur Niederschläge Wind Luftdruck Luftfeuchtigkeit
    00:00 +37°C° 0.2 mm 3 m/S 734 mmHg 34%
    01:00 +36°C° 0.7 mm 4 m/S 734 mmHg 38%
    02:00 +35°C° 0.7 mm 5 m/S 734 mmHg 42%
    03:00 +34°C° 0.7 mm 6 m/S 733 mmHg 46%
    04:00 +34°C° 0.8 mm 5 m/S 734 mmHg 46%
    05:00 +33°C° 0.8 mm 5 m/S 734 mmHg 47%
    06:00 +33°C° 0.8 mm 4 m/S 734 mmHg 47%
    07:00 +34°C° 0 mm 4 m/S 734 mmHg 46%
    08:00 +35°C° 0 mm 4 m/S 734 mmHg 44%
    09:00 +36°C° 0 mm 4 m/S 735 mmHg 43%
    10:00 +37°C° 0 mm 4 m/S 734 mmHg 38%
    11:00 +39°C° 0 mm 3 m/S 734 mmHg 34%
    12:00 +40°C° 0 mm 3 m/S 734 mmHg 29%
    13:00 +42°C° 0 mm 3 m/S 733 mmHg 27%
    14:00 +43°C° 0 mm 3 m/S 733 mmHg 24%
    15:00 +43°C° 0 mm 2 m/S 732 mmHg 21%
    16:00 +43°C° 0 mm 2 m/S 732 mmHg 21%
    17:00 +42°C° 0 mm 2 m/S 732 mmHg 21%
    18:00 +42°C° 0 mm 2 m/S 732 mmHg 21%
    19:00 +41°C° 0 mm 2 m/S 732 mmHg 22%
    20:00 +41°C° 0 mm 2 m/S 733 mmHg 23%
    21:00 +40°C° 0 mm 2 m/S 733 mmHg 24%
    22:00 +40°C° 0 mm 4 m/S 733 mmHg 29%
    23:00 +39°C° 0 mm 5 m/S 732 mmHg 34%

    übermorgen, 25 September, Dienstag

    Zeit Temperatur Niederschläge Wind Luftdruck Luftfeuchtigkeit
    00:00 +38°C° 0 mm 6 m/S 732 mmHg 40%
    01:00 +36°C° 0 mm 6 m/S 732 mmHg 44%
    02:00 +35°C° 0 mm 6 m/S 732 mmHg 48%
    03:00 +34°C° 0 mm 6 m/S 731 mmHg 52%
    04:00 +34°C° 0 mm 6 m/S 732 mmHg 54%
    05:00 +33°C° 0 mm 6 m/S 732 mmHg 55%
    06:00 +33°C° 0 mm 6 m/S 733 mmHg 57%
    07:00 +34°C° 0 mm 6 m/S 733 mmHg 54%
    08:00 +35°C° 0 mm 6 m/S 734 mmHg 50%
    09:00 +36°C° 0 mm 6 m/S 735 mmHg 46%
    10:00 +39°C° 0 mm 5 m/S 734 mmHg 41%
    11:00 +40°C° 0 mm 5 m/S 734 mmHg 36%
    12:00 +42°C° 0 mm 4 m/S 733 mmHg 30%
    13:00 +43°C° 0 mm 3 m/S 733 mmHg 27%
    14:00 +42°C° 0 mm 2 m/S 732 mmHg 23%
    15:00 +43°C° 0 mm 1 m/S 731 mmHg 19%
    16:00 +43°C° 0 mm 2 m/S 731 mmHg 19%
    17:00 +43°C° 0 mm 2 m/S 731 mmHg 19%
    18:00 +43°C° 0 mm 3 m/S 731 mmHg 19%
    19:00 +43°C° 0 mm 3 m/S 732 mmHg 20%
    20:00 +42°C° 0 mm 3 m/S 732 mmHg 22%
    21:00 +40°C° 0 mm 3 m/S 733 mmHg 24%
    22:00 +39°C° 0 mm 3 m/S 733 mmHg 25%
    23:00 +39°C° 0 mm 3 m/S 733 mmHg 27%

    26 September, Mittwoch

    Zeit Temperatur Niederschläge Wind Luftdruck Luftfeuchtigkeit
    00:00 +38°C° 0 mm 2 m/S 733 mmHg 28%
    01:00 +37°C° 0 mm 3 m/S 732 mmHg 31%
    02:00 +37°C° 0 mm 3 m/S 732 mmHg 34%
    03:00 +36°C° 0 mm 4 m/S 731 mmHg 37%
    04:00 +35°C° 0 mm 4 m/S 732 mmHg 42%
    05:00 +34°C° 0 mm 5 m/S 732 mmHg 46%
    06:00 +34°C° 0 mm 6 m/S 732 mmHg 51%
    07:00 +34°C° 0 mm 6 m/S 733 mmHg 49%
    08:00 +35°C° 0 mm 6 m/S 733 mmHg 48%
    09:00 +36°C° 0 mm 6 m/S 734 mmHg 46%
    10:00 +39°C° 0 mm 5 m/S 734 mmHg 41%
    11:00 +40°C° 0 mm 4 m/S 733 mmHg 36%
    12:00 +42°C° 0 mm 4 m/S 733 mmHg 31%
    13:00 +42°C° 0 mm 3 m/S 732 mmHg 28%
    14:00 +43°C° 0 mm 3 m/S 732 mmHg 25%
    15:00 +43°C° 0 mm 3 m/S 731 mmHg 23%
    16:00 +43°C° 0 mm 3 m/S 732 mmHg 23%
    17:00 +43°C° 0 mm 3 m/S 732 mmHg 24%
    18:00 +43°C° 0 mm 3 m/S 732 mmHg 24%
    19:00 +42°C° 0 mm 4 m/S 732 mmHg 27%
    20:00 +41°C° 0 mm 4 m/S 733 mmHg 31%
    21:00 +40°C° 0 mm 5 m/S 733 mmHg 34%
    22:00 +39°C° 0 mm 5 m/S 733 mmHg 39%
    23:00 +38°C° 0 mm 6 m/S 733 mmHg 43%

    27 September, Donnerstag

    Zeit Temperatur Niederschläge Wind Luftdruck Luftfeuchtigkeit
    00:00 +36°C° 0 mm 6 m/S 733 mmHg 47%
    01:00 +36°C° 0 mm 6 m/S 733 mmHg 49%
    02:00 +35°C° 0 mm 6 m/S 732 mmHg 51%
    03:00 +35°C° 0 mm 6 m/S 732 mmHg 54%
    04:00 +34°C° 0.4 mm 6 m/S 733 mmHg 55%
    05:00 +34°C° 0.4 mm 6 m/S 733 mmHg 57%
    06:00 +34°C° 0.4 mm 6 m/S 733 mmHg 58%
    07:00 +35°C° 0 mm 6 m/S 733 mmHg 54%
    08:00 +36°C° 0 mm 6 m/S 734 mmHg 51%
    09:00 +36°C° 0 mm 6 m/S 734 mmHg 47%
    10:00 +39°C° 0 mm 5 m/S 734 mmHg 41%
    11:00 +40°C° 0 mm 5 m/S 733 mmHg 36%
    12:00 +42°C° 0 mm 4 m/S 733 mmHg 30%
    13:00 +42°C° 0 mm 3 m/S 732 mmHg 28%
    14:00 +42°C° 0 mm 2 m/S 732 mmHg 25%
    15:00 +42°C° 0 mm 1 m/S 731 mmHg 23%
    16:00 +42°C° 0 mm 1 m/S 731 mmHg 23%
    17:00 +42°C° 0 mm 2 m/S 731 mmHg 24%
    18:00 +42°C° 0 mm 2 m/S 731 mmHg 24%
    19:00 +42°C° 0.1 mm 3 m/S 732 mmHg 26%
    20:00 +41°C° 0.1 mm 4 m/S 732 mmHg 29%
    21:00 +40°C° 0.1 mm 5 m/S 733 mmHg 31%
    22:00 +38°C° 1.7 mm 4 m/S 732 mmHg 34%
    23:00 +37°C° 1.7 mm 4 m/S 732 mmHg 36%

    28 September, Freitag

    Zeit Temperatur Niederschläge Wind Luftdruck Luftfeuchtigkeit
    00:00 +36°C° 1.7 mm 4 m/S 732 mmHg 39%
    01:00 +36°C° 0.2 mm 4 m/S 732 mmHg 40%
    02:00 +35°C° 0.2 mm 5 m/S 732 mmHg 42%
    03:00 +35°C° 0.2 mm 6 m/S 731 mmHg 43%
    04:00 +34°C° 0 mm 7 m/S 732 mmHg 48%
    05:00 +34°C° 0 mm 8 m/S 733 mmHg 52%
    06:00 +33°C° 0 mm 9 m/S 733 mmHg 56%
    07:00 +33°C° 0 mm 8 m/S 734 mmHg 56%
    08:00 +33°C° 0 mm 7 m/S 734 mmHg 56%
    09:00 +33°C° 0 mm 7 m/S 734 mmHg 55%
    10:00 +34°C° 0.2 mm 6 m/S 734 mmHg 49%
    11:00 +35°C° 0.2 mm 6 m/S 733 mmHg 44%
    12:00 +36°C° 0.2 mm 6 m/S 733 mmHg 38%
    13:00 +37°C° 0.1 mm 5 m/S 732 mmHg 35%
    14:00 +39°C° 0.1 mm 5 m/S 731 mmHg 32%
    15:00 +40°C° 0.1 mm 4 m/S 731 mmHg 29%
    16:00 +39°C° 0 mm 3 m/S 731 mmHg 30%
    17:00 +38°C° 0 mm 2 m/S 731 mmHg 31%
    18:00 +37°C° 0 mm 1 m/S 732 mmHg 32%
    19:00 +38°C° 0 mm 2 m/S 732 mmHg 33%
    20:00 +37°C° 0 mm 3 m/S 733 mmHg 33%
    21:00 +37°C° 0 mm 4 m/S 733 mmHg 34%
    22:00 +36°C° 0.1 mm 4 m/S 733 mmHg 38%
    23:00 +35°C° 0.1 mm 5 m/S 733 mmHg 42%
    Mehr zeigen